Theta_e
285 284 284 283 283 283 283 284 284 284 285 284 286 286 285 284 282 280 280 279 279 279 278 278 278 278 278 277 277 278 277 279 279 280 280 279 278 278 277 276 276 275 275
283 283 282 281 281 280 280 280 281 281 280 280 279 279 278 278 278 278 278 277 277 277 277 277 277 277 277 276 276 275 275 276 277 278 277 277 277 276 275 274 273 273 272
282 281 281 281 280 279 279 278 278 278 277 277 277 277 277 277 277 277 277 277 276 275 275 276 276 276 276 276 276 275 274 274 274 275 275 275 275 274 272 272 271 270 270
281 280 280 280 279 279 279 279 278 278 278 278 277 277 277 276 276 276 276 275 275 275 274 274 274 275 275 275 275 275 274 273 273 273 273 273 273 272 271 270 269 269 269
279 279 279 279 279 278 278 278 278 278 278 277 277 277 277 277 276 275 274 274 274 273 273 273 273 273 274 275 275 274 274 273 272 272 272 272 272 270 269 268 268 268 267
278 278 278 278 278 278 278 278 278 278 277 277 277 277 277 277 277 276 274 274 273 273 272 272 271 271 272 273 273 272 272 272 271 271 271 269 269 268 267 267 267 267 267
277 277 277 277 277 277 277 277 277 277 277 277 277 278 278 277 277 276 274 273 272 272 271 271 270 270 271 271 270 270 269 269 270 270 268 267 266 266 267 267 266 266 266
276 276 276 275 275 275 275 275 275 275 275 275 275 276 277 278 277 276 274 273 272 272 270 269 269 269 271 271 269 268 267 267 268 267 266 266 266 266 266 266 266 264 263
274 274 274 274 274 274 274 274 274 274 274 274 274 274 275 276 276 275 273 272 272 271 270 268 268 269 271 271 268 266 266 267 266 265 265 265 265 265 265 265 263 263 262
273 273 273 273 273 273 273 274 274 274 273 273 273 273 273 274 275 274 272 272 270 269 269 267 266 269 270 269 267 265 266 267 265 263 263 264 264 264 264 263 263 262 262
273 273 273 273 273 273 273 273 273 273 273 273 273 272 272 273 273 273 273 270 270 268 267 266 265 268 268 268 267 265 267 266 263 262 262 262 263 262 262 262 262 262 261
273 273 273 273 273 273 273 273 273 273 273 272 272 272 272 271 272 272 271 270 270 267 266 265 265 267 266 266 265 266 266 262 261 261 260 260 261 261 262 262 262 262 261
273 272 272 273 273 273 273 273 273 272 272 272 271 271 271 270 270 270 269 268 268 266 265 265 265 265 264 263 263 263 262 261 260 260 260 260 261 261 261 261 261 262 261
272 272 272 272 272 272 272 272 272 271 271 271 271 270 270 270 270 270 269 268 267 266 266 265 263 263 263 263 262 262 261 261 260 259 259 260 260 260 260 261 261 261 261
271 271 271 270 270 271 271 271 271 272 272 271 271 269 269 269 270 270 269 268 267 266 265 264 264 263 263 262 263 262 262 262 260 260 259 259 259 259 260 261 261 261 261
272 271 270 270 270 270 269 269 269 269 270 270 270 270 268 269 269 269 268 268 266 266 264 263 262 261 261 260 260 260 261 260 260 259 259 259 258 259 260 260 260 261 262
271 270 270 270 270 270 269 269 270 270 270 270 269 268 267 268 268 268 267 266 264 264 262 262 260 260 259 259 259 259 258 260 259 258 258 258 258 259 259 260 261 262 263
271 271 271 271 270 270 270 270 269 269 268 269 269 267 267 266 266 266 265 264 262 262 260 259 259 259 259 259 259 258 258 258 258 258 258 258 259 259 260 261 262 263 263
271 271 271 271 270 270 270 269 268 267 266 266 266 267 265 265 265 265 263 261 260 260 260 260 260 259 260 260 260 259 258 258 258 258 258 259 259 260 260 261 262 263 263
271 271 271 270 270 269 269 268 267 266 266 266 265 265 265 264 264 264 262 261 260 260 259 259 260 260 260 260 260 259 258 258 259 259 259 260 260 261 261 262 263 263 264
271 270 270 270 269 269 269 268 267 267 266 266 265 264 264 266 264 263 262 261 260 260 259 259 260 260 261 261 260 260 259 260 260 260 260 261 261 262 262 262 263 264 266
271 270 270 270 269 269 269 268 267 267 266 266 266 265 264 264 263 262 261 261 260 260 260 259 260 261 261 261 261 262 260 260 261 261 261 261 262 262 263 264 266 268 268
270 270 270 269 269 269 268 268 267 267 266 266 265 265 265 264 263 262 262 261 261 261 260 260 260 262 263 263 263 263 262 263 262 262 261 262 263 264 267 268 267 268 268
270 270 269 269 269 269 268 268 267 267 266 266 266 265 264 264 263 263 262 261 261 261 261 261 261 262 263 264 265 266 266 267 265 264 265 266 269 268 267 267 268 268 268
269 269 269 269 269 269 268 268 268 267 267 266 266 265 264 264 263 263 262 261 261 261 261 261 262 263 264 265 266 267 267 268 267 267 268 269 268 267 267 268 268 268 269
269 269 269 268 268 268 268 268 268 267 267 266 266 265 264 264 263 262 262 261 261 261 261 262 263 264 265 266 267 267 268 268 267 269 270 268 268 267 268 268 269 269 270
Wind_Speed
44 44 43 42 38 40 47 51 51 50 53 51 56 53 50 49 47 47 45 40 40 37 34 34 32 27 27 25 23 20 20 16 7 8 18 25 25 26 25 26 27 28 24
46 49 47 42 39 42 47 44 50 54 51 49 50 50 46 44 43 44 42 38 37 36 33 33 31 29 29 26 23 21 19 17 14 15 22 21 23 22 23 29 23 22 24
46 45 43 39 39 45 44 40 49 56 46 44 50 47 44 43 42 39 37 36 36 34 31 31 28 28 27 25 23 23 20 17 16 16 18 19 20 21 25 24 25 28 28
44 43 42 38 38 43 43 39 42 49 47 44 46 46 43 40 38 35 35 34 31 28 27 28 27 27 26 23 20 20 18 18 18 17 18 20 21 23 26 30 35 31 32
40 40 39 38 39 40 39 40 42 48 44 41 42 41 35 34 32 33 31 30 29 28 25 22 23 21 21 21 22 22 20 19 19 20 19 21 22 27 28 31 31 34 31
35 37 36 37 35 33 36 37 43 43 43 43 43 38 33 30 26 24 27 28 27 27 24 21 18 23 23 23 23 21 19 22 22 22 21 23 26 29 30 31 32 32 14
34 35 34 33 34 32 35 36 39 36 35 38 34 32 34 29 24 24 24 23 22 21 22 22 18 22 26 28 25 22 20 20 18 21 22 24 28 29 30 30 29 29 33
33 32 30 31 33 32 35 38 34 31 34 32 31 32 33 30 26 21 19 21 21 20 20 21 21 25 28 28 26 22 20 20 20 23 25 25 25 26 25 27 30 32 34
32 32 32 34 34 34 34 30 27 31 29 28 31 30 28 30 27 25 22 24 18 18 17 20 21 23 26 27 22 19 18 20 19 24 21 23 23 24 24 28 27 27 29
29 29 30 31 31 30 28 28 27 28 27 26 26 27 28 29 25 28 22 17 19 19 18 16 17 24 25 25 22 22 22 24 31 29 31 31 31 32 27 25 27 26 29
27 29 29 29 29 28 27 26 26 25 25 25 27 24 23 23 21 20 22 19 20 15 18 27 26 24 24 23 21 22 23 27 31 30 33 34 34 33 33 33 31 29 34
27 28 28 26 24 25 25 23 21 23 25 19 20 22 21 21 18 19 22 19 17 20 18 23 27 24 24 21 20 23 25 27 28 31 30 30 30 32 36 39 43 42 40
24 24 22 22 22 21 20 20 22 21 22 22 20 17 15 17 21 19 19 21 21 21 22 22 20 19 20 23 25 23 25 27 29 28 29 33 34 39 43 43 42 42 45
21 20 19 20 19 19 19 19 21 21 19 20 19 18 16 19 22 25 28 29 24 24 24 22 19 21 25 25 31 29 30 30 30 31 32 37 39 39 39 41 41 44 44
19 18 17 17 17 18 19 18 18 19 16 14 13 13 14 18 20 19 20 21 19 19 21 23 27 30 32 34 36 35 35 35 35 35 35 38 38 39 40 41 40 43 38
14 14 13 13 12 12 11 11 12 11 11 10 9 10 13 11 14 15 16 18 18 19 23 24 26 27 29 31 32 35 36 36 37 37 37 37 37 38 41 43 39 37 39
13 12 11 10 10 10 10 9 10 9 11 12 13 11 11 14 15 17 19 20 19 17 19 19 21 24 27 29 29 30 33 38 39 37 36 38 39 39 39 40 41 40 42
11 11 9 8 8 8 8 8 8 10 12 13 11 12 11 14 15 15 16 18 19 15 15 19 23 25 29 31 32 33 36 37 37 37 38 39 39 36 39 40 42 42 42
11 9 7 6 5 5 5 5 6 7 8 11 13 11 12 14 13 13 13 17 19 21 21 23 24 27 30 33 37 37 36 38 40 41 40 38 38 37 41 42 43 49 49
13 10 8 5 3 1 2 4 5 8 10 12 14 15 16 18 20 22 17 18 19 21 23 25 27 29 32 36 39 39 39 40 40 39 40 39 40 38 40 44 46 46 47
15 12 9 6 3 1 3 5 6 9 11 13 14 15 14 19 23 20 19 19 19 22 23 25 28 30 33 37 39 41 42 44 44 42 42 42 42 44 46 45 47 50 50
17 15 12 9 7 6 6 7 8 10 12 15 17 17 16 18 19 19 20 20 20 21 22 25 29 30 33 36 40 44 45 46 47 44 44 45 46 46 46 47 51 51 51
21 18 16 13 11 9 9 9 9 11 14 15 17 19 19 20 20 21 21 21 21 21 23 26 28 30 31 36 39 43 45 49 49 49 50 50 50 44 48 52 51 50 50
24 22 19 17 15 13 12 11 11 12 14 16 18 19 21 22 22 22 21 21 21 22 25 26 26 29 33 37 41 44 47 51 52 52 54 52 40 56 53 51 51 54 56
29 25 23 20 18 16 14 13 13 13 15 17 19 20 21 22 23 21 20 20 21 23 26 26 27 30 34 38 42 43 47 51 52 53 52 44 52 55 52 53 55 57 57
32 29 25 22 20 18 17 15 14 14 16 18 19 19 21 22 23 22 20 20 21 24 27 27 28 30 34 39 42 46 51 54 49 54 46 52 51 53 53 55 59 58 57
Wind_Direction
74 74 71 67 70 79 83 85 85 86 84 82 88 90 87 85 85 86 85 84 81 77 72 69 65 59 52 45 41 34 30 24 343 304 317 326 331 335 332 326 323 327 329
74 73 72 72 73 75 75 80 87 85 83 83 85 85 84 84 83 83 82 79 74 71 67 62 55 49 45 37 29 27 16 14 344 326 320 329 328 330 327 328 332 324 324
76 77 76 75 76 76 76 78 84 87 83 80 83 81 82 83 81 79 79 77 72 68 66 63 55 44 38 27 20 15 6 358 348 325 317 326 328 333 335 329 329 325 324
76 76 75 74 74 77 79 75 78 84 82 79 80 79 78 78 78 77 76 74 73 70 59 54 52 45 32 22 13 8 360 356 346 337 330 328 330 333 336 334 329 330 326
77 76 75 75 76 79 81 81 80 83 81 81 77 74 69 65 64 68 68 69 66 63 60 52 43 37 26 20 12 2 359 353 347 340 334 333 338 341 338 330 323 324 323
77 78 79 78 78 78 79 78 78 78 78 75 73 72 69 66 65 64 63 59 55 51 46 41 33 24 18 11 8 5 3 357 351 345 344 341 334 332 330 329 325 325 321
76 76 77 79 79 77 79 80 78 75 76 74 72 68 65 61 58 56 54 54 52 48 39 28 22 14 11 5 2 3 359 358 354 348 339 331 326 326 325 324 319 314 310
74 76 79 82 82 81 81 78 80 80 77 75 70 65 62 55 51 50 47 46 47 42 30 23 18 8 8 1 356 356 354 351 349 341 332 325 324 322 319 316 315 307 302
73 77 81 85 84 82 79 82 82 81 79 77 73 70 61 52 44 39 41 39 33 32 26 14 7 6 359 357 356 349 344 344 335 334 331 327 324 321 323 320 313 314 309
75 84 92 92 90 88 87 82 82 80 78 77 74 66 61 56 40 36 32 31 28 17 15 3 2 4 356 356 359 355 341 339 335 335 340 339 338 335 323 315 306 302 301
94 93 91 88 89 89 87 81 77 75 72 66 63 58 56 52 41 34 30 30 21 4 6 2 357 356 354 353 350 351 333 333 333 337 333 333 332 326 319 315 307 292 287
96 90 85 86 86 81 79 76 72 68 64 63 62 52 42 34 32 25 26 24 12 18 4 356 356 350 351 345 341 342 340 335 337 330 323 319 315 314 315 311 307 300 286
96 95 91 84 79 79 77 74 67 60 54 49 46 43 33 21 23 17 15 16 19 6 3 354 348 343 344 348 349 344 335 339 331 322 318 313 313 309 311 308 308 304 299
102 97 90 85 83 79 73 70 68 55 50 43 34 22 19 15 16 7 1 0 2 0 347 346 346 350 353 349 349 344 342 337 329 318 308 307 308 308 308 310 307 308 306
99 93 88 85 77 74 67 58 60 59 40 40 31 12 11 8 5 358 354 351 349 347 332 345 353 354 351 349 345 342 339 335 326 321 311 307 306 306 305 307 302 302 296
101 93 84 80 77 76 70 69 62 57 51 46 30 16 1 358 343 342 345 348 344 344 341 347 344 343 338 337 334 330 328 323 319 313 306 301 298 299 299 302 299 294 294
115 106 99 91 82 73 61 44 32 30 19 11 2 355 350 343 337 338 343 341 334 331 324 328 325 324 324 324 320 315 310 316 315 305 299 296 296 295 298 297 299 300 301
133 124 117 101 82 66 49 33 16 3 356 354 354 341 333 328 330 326 327 316 322 324 318 313 314 317 320 318 314 311 311 310 308 304 298 296 294 294 297 298 301 302 303
152 143 129 111 89 63 39 22 4 344 329 325 330 332 321 318 315 312 312 314 321 322 324 318 316 315 316 319 318 314 309 306 305 302 299 299 300 300 298 299 300 303 303
173 170 167 158 146 114 22 352 340 328 322 320 323 323 331 329 319 320 320 323 319 318 320 319 317 317 318 320 321 317 312 311 308 306 305 304 302 300 298 300 301 302 301
188 189 191 194 199 257 294 305 321 322 321 318 320 326 323 310 309 314 319 321 318 319 321 321 319 318 319 321 322 321 318 314 312 308 307 306 305 305 305 301 300 300 298
202 203 208 215 225 245 273 299 307 314 318 318 323 326 323 318 320 317 316 318 321 320 324 322 318 317 320 322 325 326 320 314 314 312 310 308 308 306 304 303 305 307 306
210 212 217 226 236 249 264 278 296 309 314 317 320 322 325 325 324 321 319 321 321 322 328 326 321 320 323 327 329 327 321 320 318 317 310 308 308 306 312 312 310 309 307
216 219 222 229 238 248 261 276 288 299 307 315 319 321 324 326 326 323 320 321 322 323 327 327 323 324 327 331 332 331 329 330 329 324 319 309 312 320 317 313 311 310 309
219 222 226 231 238 248 258 269 281 294 305 313 318 319 323 325 325 324 322 322 323 326 329 329 327 329 332 333 333 333 332 334 337 328 318 322 322 319 316 315 313 311 311
219 222 226 233 238 245 254 263 274 289 300 309 315 319 321 323 326 324 324 323 325 329 331 329 330 333 334 334 335 335 337 338 329 325 330 329 324 321 319 317 315 314 314